Tasiilaq

KL  EN  DA
ASIAQ
Weather Now GREENLAND SURVEY
Updated [WGT/WGST] Temperature [°C] Wind [m/s] Air pressure [hPa] Relative humidity [%] Precipitation [mm]
Present Wind chill Speed Max
18.10 23:00-2,20,00,3 ⇒3,61012710,0
18.10 22:00-1,8-4,31,8 ⇒2,51012680,0
18.10 21:00-1,9-5,02,3 ⇒3,31013680,0
18.10 20:00-1,70,01,3 ⇒2,11013720,0
18.10 19:00-1,60,01,0 ⇑2,91013760,0
18.10 18:00-1,10,00,0 ⇓2,51014710,0
18.10 17:000,40,00,4 ⇑2,01014660,0
18.10 16:00-0,40,00,0 ⇓1,11014710,0
18.10 15:000,50,00,8 ⇖1,41014730,0
18.10 14:000,20,00,0 ⇓1,01015640,0
18.10 13:000,30,00,0 ⇓1,51015660,0
18.10 12:00-0,60,00,0 ⇓0,01016730,0
18.10 11:00-0,50,00,0 ⇓1,71016720,0
18.10 10:00-0,50,00,0 ⇓1,51016680,0
18.10 09:00-1,60,00,4 ⇗1,41016710,0
18.10 08:00-2,00,00,0 ⇓1,11016670,0
18.10 07:00-2,70,00,4 ⇘1,91016730,0
18.10 06:00-2,70,00,0 ⇓1,51016670,0
18.10 05:00-1,60,00,0 ⇓0,91016640,0
18.10 04:00-1,90,00,0 ⇓2,01016640,0
18.10 03:00-1,70,00,0 ⇓2,11016640,0
18.10 02:00-1,50,01,3 ⇗2,61016630,0
18.10 01:00-0,40,01,0 ⇒2,81016600,0
18.10 00:00-1,3-3,71,8 ⇒3,31016670,0
17.10 23:00-0,7-3,62,3 ⇒3,31016640,0
Position: (65.611111111,-37.63666666)

[Back]